Printer-friendly version

IAU Minor Planet Center

Minor Planet Center

MPEC 2005-J38 : COMET C/2005 G1 (LINEAR)

The following Minor Planet Electronic Circular may be linked-to from your own Web pages, but must not otherwise be redistributed electronically.


Read MPEC 2005-J37 Read MPEC 2005-J39


M.P.E.C. 2005-J38                                Issued 2005 May  9, 14:53 UT

     The Minor Planet Electronic Circulars contain information on unusual
         minor planets and routine data on comets.  They are published
   on behalf of Commission 20 of the International Astronomical Union by the
          Minor Planet Center, Smithsonian Astrophysical Observatory,
                          Cambridge, MA 02138, U.S.A.

                  Supported in part by the Brinson Foundation
             Prepared using the Tamkin Foundation Computer Network

                              MPC@CFA.HARVARD.EDU
          URL http://cfa-www.harvard.edu/iau/mpc.html  ISSN 1523-6714

                           COMET C/2005 G1 (LINEAR)

Observations:
    CK05G010  C2005 05 04.70759 17 43 53.27 +54 32 13.5          18.5 T EJ038360
    CK05G010  C2005 05 04.71116 17 43 52.90 +54 32 16.0                 EJ038360
    CK05G010  C2005 05 04.71573 17 43 52.53 +54 32 20.1                 EJ038360
    CK05G010  C2005 05 07.08589 17 40 33.53 +55 03 00.6          18.0 N EJ038213
    CK05G010  C2005 05 07.10279 17 40 32.05 +55 03 13.5          18.0 N EJ038213
    CK05G010  C2005 05 07.13320 17 40 29.40 +55 03 36.6          18.0 N EJ038213

Observer details:
213 Observatorio Montcabre.  Observer R. Naves.  Measurer M. Campas.  0.30-m
    f/5.9 Schmidt-Cassegrain + CCD.
360 Kuma Kogen.  Observer A. Nakamura.  0.60-m f/5.8 Ritchey-Chretien + CCD.

Orbital elements:
    C/2005 G1 (LINEAR)
T 2006 Feb. 27.3469 TT                                  MPC
q   4.960172             (2000.0)            P               Q
                   Peri.  113.8288      -0.4508063      -0.3408171
                   Node   299.5968      -0.1538776      +0.9400741
e   1.0            Incl.  108.4154      +0.8792584      -0.0102201
From 115 observations 2005 Mar. 22-May 7.

Ephemeris:
    C/2005 G1 (LINEAR)
Date    TT    R. A. (2000) Decl.     Delta      r     Elong.  Phase   m1    m2
2005 04 30    17 49.94   +53 28.5    5.221    5.477    99.5    10.5  19.0
2005 05 10    17 36.24   +55 39.3    5.173    5.446   100.3    10.5  18.9
2005 05 20    17 19.45   +57 29.5    5.143    5.415   100.2    10.6  18.9
2005 05 30    17 00.06   +58 53.3    5.131    5.385    99.1    10.7  18.9
2005 06 09    16 38.98   +59 46.6    5.135    5.356    97.1    10.8  18.8
2005 06 19    16 17.51   +60 08.0    5.154    5.328    94.3    11.0  18.8
2005 06 29    15 57.02   +59 59.2    5.185    5.301    91.0    11.1  18.8

Brian G. Marsden             (C) Copyright 2005 MPC           M.P.E.C. 2005-J38

Read MPEC 2005-J37 Read MPEC 2005-J39


Our Web policy. Index to the CBAT/MPC/ICQ pages.


Valid HTML 4.01!